Regional Weather Roundup
Issued by NWS Northern Indiana

Home | Current Version | Previous Version | Text Only | Print | Product List | Glossary Off
Versions: 1 2 3 4 5 6 7 8 9 10 11 12 13 14 15 16 17 18 19 20 21 22 23 24 25 26 27 28 29 30 31 32 33 34 35 36 37 38 39 40 41 42 43 44 45 46 47 48 49 50

000
ASUS43 KIWX 180100
RWRIWX

KIWX WEATHER ROUNDUP
NATIONAL WEATHER SERVICE NORTHERN INDIANA
900 PM EDT TUE OCT 17 2017

NOTE: "FAIR" INDICATES FEW OR NO CLOUDS BELOW 12,000 FEET WITH NO
SIGNIFICANT WEATHER AND/OR OBSTRUCTIONS TO VISIBILITY.

* THESE STATIONS ARE NOT UNDER NWS QUALITY CONTROL. THEY ALSO MAY NOT
  REPORT WEATHER SUCH AS PRECIPITATION OR FOG.

INZ001>027-180200-
NORTHERN INDIANA

CITY           SKY/WX    TMP DP  RH WIND       PRES   REMARKS
GARY*          CLEAR     63  37  39 S7        30.16R
SOUTH BEND     CLEAR     54  41  61 S6        30.19R
ELKHART*       CLEAR     57  39  51 SW6       30.18R
GOSHEN         CLEAR     55  39  54 S7        30.19R
MONTICELLO*    CLEAR     56  39  52 S6        30.21R
FORT WAYNE     CLEAR     50  40  68 SW9       30.21S
PERU/GRISSOM   CLEAR     50  41  69 S7        30.22R

$$
INZ028>050-180200-
CENTRAL INDIANA

CITY           SKY/WX    TMP DP  RH WIND       PRES   REMARKS
LAFAYETTE      CLEAR     56  41  57 S5        30.22
KOKOMO*        CLEAR     53  41  63 S9        30.23S
MUNCIE*        CLEAR     55  39  54 S5        30.24R
INDIANAPOLIS   CLEAR     55  40  56 S8        30.25R

$$
MIZ043>046-050>051-056>058-064>065-071>073-077>080-180200-
SOUTHWEST LOWER MICHIGAN

CITY           SKY/WX    TMP DP  RH WIND       PRES   REMARKS
BATTLE CREEK   CLEAR     54  43  66 S9        30.17R
BENTON HARBOR  CLEAR     59  41  51 S7        30.15R
COLDWATER*     CLEAR     55  39  54 SW6       30.18S
HILLSDALE*     CLEAR     55  37  50 SW7       30.19R
HOLLAND        CLEAR     63  44  50 SW15      30.13R
GRAND RAPIDS   CLOUDY    60  43  53 SW5       30.14R
KALAMAZOO      CLEAR     55  41  59 S8        30.17R
STURGIS*       CLEAR     52  42  67 SW6       30.18R
THREE RIVERS*  FAIR      56  42  59 SW5       30.18R

$$
OHZ001>008-015>018-024>025-180200-
NORTHWEST OHIO

CITY           SKY/WX    TMP DP  RH WIND       PRES   REMARKS
DEFIANCE       CLEAR     52  40  63 S7        30.21R
FINDLAY        CLEAR     49  39  68 S10       30.21S
TOLEDO EXPRESS CLEAR     57  43  59 SW6       30.20R
TOLEDO METCALF CLEAR     56  41  57 SW7       30.21R
LIMA           CLEAR     55  39  54 S7        30.23R

$$
AND FOR LAKE MICHIGAN COASTAL AND OPEN LAKE BUOY OBSERVATIONS

STATION/POSITION TEMP    WIND        PRES    VSBY  WAVE
                 AIR SEA DIR/SP/G                  HT/PER
                 (F)     (DEG/KT/KT) (MB)    (MI)  (FT/S)
CALUMET HARBOR    64     200/  7/ 11 1019.9R
MICHIGAN CITY     62     180/ 10/ 13   N/A
BURNS HARBOR      62     190/ 10/ 13 1021.3R
SAINT JOSEPH      65     190/  8/ 14 1021.0
SOUTH LAKE BUOY   63 61  210/ 14/ 16 1019.2          3/ 5
4 MI NW BRIDGMAN  61 58  200/ 10/ 14 1021.4R         2/ 4
MICHIGAN CITY     61 57  200/ 10/ 12   N/A           1/ 3

$$
&&



USA.gov is the U.S. government's official web portal to all federal, state and local government web resources and services.